Weather History for Montague, CA

Change the Weather History Date:

Saturday, March 2, 2013

  Actual Average Record
Temperature  
Mean Temperature 43 °F 42 °F  
Max Temperature 57 °F 55 °F 73 °F (1994)
Min Temperature 28 °F 29 °F 18 °F (1971)
Degree Days  
Heating Degree Days 22 23  
Month to date heating degree days 43 46  
Since 1 July heating degree days 3783 3923  
Cooling Degree Days 0 0  
Month to date cooling degree days 0 0  
Year to date cooling degree days 0 0  
Moisture  
Dew Point 33 °F    
Average Humidity 74    
Maximum Humidity 100    
Minimum Humidity 47    
Precipitation  
Precipitation 0.02 in 0.10 in 1.05 in (1972)
Month to date precipitation 0.02 0.21  
Year to date precipitation 1.06 4.42  
Sea Level Pressure  
Sea Level Pressure 30.27 in    
Wind  
Wind Speed 3 mph (NNW)    
Max Wind Speed 12 mph    
Max Gust Speed 14 mph    
Visibility 8 miles    
Events Rain    
T = Trace of Precipitation, MM = Missing Value Source: NWS Daily Summary

Daily Weather History Graph

Daily Weather History Graph

Search for Another Location

Airport:

Trip Planner

Search our weather history database for the weather conditions in past years. The results will help you decide how hot, cold, wet, or windy it might be!

Date:

Astronomy

Mar. 02, 2013 Rise Set
Actual Time 6:42 AM PST 6:01 PM PST
Civil Twilight 6:14 AM PST 6:29 PM PST
Nautical Twilight 5:42 AM PST 7:02 PM PST
Astronomical Twilight 5:10 AM PST 7:34 PM PST
Moon 11:53 PM PST (3/2) 9:09 AM PST (3/2)
Length of Visible Light 12h 15m
Length of Day
11h 19m
Waning Gibbous, 73% of the Moon is Illuminated
Mar 2
Waning Gibbous
Mar 4
Last Quarter
Mar 11
New
Mar 19
First Quarter
Mar 27
Full

Hourly Weather History & Observations

Time (PST) Temp. Windchill Dew Point Humidity Pressure Visibility Wind Dir Wind Speed Gust Speed Precip Events Conditions
12:53 AM 34.0 °F - 28.9 °F 82% 30.39 in 10.0 mi Calm Calm - N/A   Clear
1:53 AM 30.0 °F 26.5 °F 26.1 °F 85% 30.37 in 10.0 mi North 3.5 mph - N/A   Clear
2:53 AM 33.1 °F - 28.9 °F 85% 30.34 in 10.0 mi Calm Calm - N/A   Clear
3:53 AM 30.9 °F - 30.0 °F 96% 30.33 in 10.0 mi Calm Calm - N/A   Clear
4:53 AM 33.1 °F - 30.9 °F 92% 30.34 in 5.0 mi Calm Calm - N/A   Clear
5:39 AM 30.2 °F - 28.4 °F 93% 30.28 in 1.8 mi Calm Calm - N/A   Clear
5:47 AM 28.4 °F 23.3 °F 26.6 °F 93% 30.29 in 1.0 mi WSW 4.6 mph - N/A   Mist
5:53 AM 28.0 °F 22.8 °F 26.1 °F 92% 30.34 in 0.8 mi West 4.6 mph - N/A   Mist
5:56 AM 28.4 °F 24.6 °F 26.6 °F 93% 30.28 in 1.2 mi SW 3.5 mph - N/A   Scattered Clouds
5:59 AM 28.4 °F - 26.6 °F 93% 30.28 in 5.0 mi Calm Calm - N/A   Scattered Clouds
6:53 AM 30.0 °F 26.5 °F 28.0 °F 92% 30.34 in 9.0 mi North 3.5 mph - N/A   Clear
7:04 AM 30.2 °F 25.4 °F 28.4 °F 93% 30.27 in 10.0 mi North 4.6 mph - N/A   Partly Cloudy
7:53 AM 33.1 °F - 30.9 °F 92% 30.35 in 10.0 mi Calm Calm - N/A   Clear
8:53 AM 37.9 °F - 34.0 °F 86% 30.34 in 10.0 mi Calm Calm - N/A   Clear
9:53 AM 41.0 °F - 36.0 °F 82% 30.32 in 10.0 mi Calm Calm - N/A   Clear
10:53 AM 48.0 °F - 36.0 °F 63% 30.30 in 10.0 mi Calm Calm - N/A   Clear
11:53 AM 51.1 °F - 36.0 °F 56% 30.28 in 10.0 mi Variable 3.5 mph - N/A   Clear
12:53 PM 54.0 °F - 37.0 °F 53% 30.25 in 10.0 mi Calm Calm - N/A   Clear
1:53 PM 55.9 °F - 37.0 °F 49% 30.23 in 10.0 mi Calm Calm - N/A   Clear
2:53 PM 55.9 °F - 37.0 °F 49% 30.20 in 10.0 mi Calm Calm - 0.00 in   Mostly Cloudy
3:53 PM 57.0 °F - 37.0 °F 47% 30.19 in 10.0 mi Calm Calm - N/A   Mostly Cloudy
4:53 PM 57.0 °F - 37.9 °F 49% 30.18 in 10.0 mi South 3.5 mph - N/A   Overcast
5:53 PM 53.1 °F - 37.9 °F 57% 30.19 in 10.0 mi Calm Calm - N/A   Overcast
6:53 PM 51.1 °F - 36.0 °F 56% 30.19 in 10.0 mi NE 8.1 mph - N/A   Mostly Cloudy
7:53 PM 50.0 °F - 35.1 °F 57% 30.20 in 10.0 mi NNE 6.9 mph - N/A   Overcast
8:53 PM 48.9 °F - 34.0 °F 56% 30.19 in 10.0 mi North 10.4 mph - N/A   Overcast
9:53 PM 48.0 °F - 35.1 °F 61% 30.19 in 10.0 mi North 8.1 mph - N/A   Overcast
10:53 PM 46.9 °F - 37.9 °F 71% 30.19 in 10.0 mi North 10.4 mph - 0.00 in Rain Light Rain
11:53 PM 45.0 °F 40.6 °F 39.9 °F 82% 30.19 in 10.0 mi North 8.1 mph - 0.01 in Rain Light Rain